Terug naar catalogus

CZ-2D R/B

ActiefPO
NORAD 28738·ROCKET BODY·🇨🇳 China

Gelanceerd Jul 5, 2005 vanaf Jiuquan Satellite Launch Center

Loading…

Volgende Passages (komende 24 uur)

TLE

VersSource: Space-Track

Epoch: Sep 14, 2026, 01:00 UTC

1 28738U 05024B   26257.04224126  .00082300  00000-0  41694-3 0  9992
2 28738  97.3410 281.6139 0003840  78.9139 281.2561 15.81295574169329

Volg CZ-2D R/B in realtime met AllMySat

Download on the App Store